User: anonymous   Login
Location: Prairie State College
(41.5244°N, 87.6382°W)
Time: 07:21:14
(UTC-05:00)
Language:

MSX - Orbit

View from above orbital plane
View from above orbital plane
View from above satellite
View from above satellite

Ground track
Ground track

The orbit data is extracted from the following two-line orbital elements,

1 23851U 96024A   15201.10412729 0.00000100  00000-0  70480-4 0    02
2 23851  98.7278 233.2336 0008394  86.0799 273.9200 13.98024941    01
Epoch (UTC): 20 July 2015 02:29:56
Eccentricity: 0.0008394
inclination: 98.7278°
perigee height: 894 km
apogee height: 907 km
right ascension of ascending node: 233.2336°
argument of perigee: 86.0799°
revolutions per day: 13.98024941
mean anomaly at epoch: 273.9200°
orbit number at epoch: 0

The dashed part of the orbit path shows where the satellite is in the earth's shadow,  

DLR